| time (UTC) | temp C | wind direction | speed KPH | gust KPH | rain 1hr cm | rain 24hr cm | rain mn cm | humidity % | barometer mb |
| 20260504110248 | 17 | 261 | 6.4 | 11.3 | 0.00 | 0.61 | 0.61 | 79 | 1014.8 |
| 20260504100211 | 16 | 274 | 8.0 | 17.7 | 0.00 | 0.48 | 0.48 | 81 | 1014.9 |
| 20260504090134 | 13 | 148 | 6.4 | 11.3 | 0.00 | 0.48 | 0.48 | 97 | 1015.4 |
| 20260504081604 | 12 | 281 | 3.2 | 9.7 | 0.30 | 0.41 | 0.41 | 94 | 1015.5 |
| 20260504081100 | 11 | 307 | 6.4 | 9.7 | 1.98 | 0.38 | 0.38 | 92 | 1015.5 |
| 20260504080557 | 12 | 328 | 8.0 | 9.7 | 1.85 | 0.36 | 0.36 | 90 | 1015.5 |
| 20260504050404 | 15 | 166 | 11.3 | 14.5 | 0.00 | 0.00 | 0.00 | 66 | 1014.1 |
| 20260504045901 | 15 | 164 | 3.2 | 4.8 | 0.00 | 0.00 | 0.00 | 68 | 1014.0 |
| 20260504045356 | 15 | 165 | 1.6 | 3.2 | 0.00 | 0.00 | 0.00 | 70 | 1014.0 |
| 20260504044853 | 15 | 167 | 4.8 | 11.3 | 0.00 | 0.00 | 0.00 | 69 | 1014.1 |
| 20260504044350 | 15 | 149 | 1.6 | 1.6 | 0.00 | 0.00 | 0.00 | 70 | 1014.0 |
| 20260504043848 | 15 | 192 | 1.6 | 3.2 | 0.00 | 0.00 | 0.00 | 71 | 1013.8 |
| 20260504043344 | 15 | 146 | 0.0 | 1.6 | 0.00 | 0.00 | 0.00 | 72 | 1013.9 |
| 20260504042842 | 14 | 143 | 0.0 | 1.6 | 0.00 | 0.00 | 0.00 | 72 | 1014.0 |
| 20260504042338 | 14 | 164 | 3.2 | 3.2 | 0.00 | 0.00 | 0.00 | 71 | 1013.9 |
| 20260504041834 | 14 | 143 | 1.6 | 3.2 | 0.00 | 0.00 | 0.00 | 71 | 1014.1 |
| 20260504041331 | 14 | 165 | 1.6 | 1.6 | 0.00 | 0.00 | 0.00 | 72 | 1013.7 |
| 20260504040827 | 14 | 153 | 0.0 | 0.0 | 0.00 | 0.00 | 0.00 | 72 | 1013.9 |
| 20260504040325 | 13 | 286 | 4.8 | 8.0 | 0.00 | 0.00 | 0.00 | 72 | 1013.8 |
| 20260504035820 | 13 | 169 | 0.0 | 1.6 | 0.00 | 0.00 | 0.00 | 74 | 1014.0 |
| 20260504035318 | 13 | 153 | 3.2 | 4.8 | 0.00 | 0.00 | 0.00 | 74 | 1014.1 |
| 20260504034815 | 13 | 152 | 0.0 | 0.0 | 0.00 | 0.00 | 0.00 | 73 | 1013.8 |
| 20260504034313 | 13 | 155 | 0.0 | 1.6 | 0.00 | 0.00 | 0.00 | 74 | 1013.8 |
| 20260504033809 | 13 | 140 | 0.0 | 1.6 | 0.00 | 0.00 | 0.00 | 75 | 1013.8 |
| 20260504033308 | 13 | 134 | 0.0 | 0.0 | 0.00 | 0.00 | 0.00 | 75 | 1013.8 |
| 20260504032804 | 13 | 271 | 1.6 | 1.6 | 0.00 | 0.00 | 0.00 | 75 | 1013.8 |
| 20260504032301 | 13 | 214 | 0.0 | 0.0 | 0.00 | 0.00 | 0.00 | 76 | 1014.0 |
| 20260504031757 | 13 | 144 | 0.0 | 1.6 | 0.00 | 0.00 | 0.00 | 76 | 1013.8 |
| 20260504031255 | 13 | 133 | 0.0 | 0.0 | 0.00 | 0.00 | 0.00 | 75 | 1013.9 |
| 20260504030751 | 13 | 139 | 0.0 | 1.6 | 0.00 | 0.00 | 0.00 | 76 | 1013.7 |
| 20260504030248 | 13 | 306 | 0.0 | 1.6 | 0.00 | 0.00 | 0.00 | 76 | 1013.7 |
| 20260504025744 | 13 | 338 | 4.8 | 4.8 | 0.00 | 0.00 | 0.00 | 76 | 1013.6 |
| 20260504025242 | 13 | 295 | 3.2 | 4.8 | 0.00 | 0.00 | 0.00 | 76 | 1013.6 |
| 20260504024738 | 13 | 153 | 1.6 | 1.6 | 0.00 | 0.00 | 0.00 | 76 | 1013.7 |
| 20260504024235 | 13 | 291 | 3.2 | 3.2 | 0.00 | 0.00 | 0.00 | 76 | 1013.7 |
| 20260504023732 | 13 | 177 | 0.0 | 1.6 | 0.00 | 0.00 | 0.00 | 75 | 1013.5 |
| 20260504023228 | 13 | 319 | 3.2 | 3.2 | 0.00 | 0.00 | 0.00 | 74 | 1013.5 |
| 20260504022724 | 13 | 227 | 1.6 | 1.6 | 0.00 | 0.00 | 0.00 | 73 | 1013.6 |
| 20260504022220 | 13 | 154 | 3.2 | 3.2 | 0.00 | 0.00 | 0.00 | 72 | 1013.6 |
| 20260504021718 | 13 | 293 | 1.6 | 3.2 | 0.00 | 0.00 | 0.00 | 72 | 1013.5 |
| 20260504021215 | 13 | 151 | 0.0 | 0.0 | 0.00 | 0.00 | 0.00 | 72 | 1013.5 |
| 20260504020712 | 13 | 343 | 1.6 | 3.2 | 0.00 | 0.00 | 0.00 | 72 | 1013.5 |
| 20260504020208 | 13 | 175 | 4.8 | 4.8 | 0.00 | 0.00 | 0.00 | 71 | 1013.6 |
| 20260504015704 | 13 | 154 | 4.8 | 8.0 | 0.00 | 0.00 | 0.00 | 71 | 1013.5 |
| 20260504015201 | 13 | 192 | 8.0 | 11.3 | 0.00 | 0.00 | 0.00 | 70 | 1013.4 |
| 20260504014656 | 13 | 326 | 1.6 | 3.2 | 0.00 | 0.00 | 0.00 | 71 | 1013.4 |
| 20260504014154 | 13 | 217 | 1.6 | 1.6 | 0.00 | 0.00 | 0.00 | 72 | 1013.5 |
| 20260504013652 | 13 | 162 | 6.4 | 9.7 | 0.00 | 0.00 | 0.00 | 73 | 1013.4 |
| 20260504013148 | 13 | 315 | 3.2 | 4.8 | 0.00 | 0.00 | 0.00 | 71 | 1013.2 |
| 20260504012645 | 13 | 172 | 1.6 | 1.6 | 0.00 | 0.00 | 0.00 | 72 | 1013.2 |
| 20260504012143 | 13 | 1 | 6.4 | 11.3 | 0.00 | 0.00 | 0.00 | 73 | 1013.2 |
| 20260504011640 | 13 | 196 | 3.2 | 3.2 | 0.00 | 0.00 | 0.00 | 73 | 1013.4 |
| 20260504011136 | 13 | 260 | 1.6 | 3.2 | 0.00 | 0.00 | 0.00 | 74 | 1013.2 |
| 20260504010632 | 13 | 171 | 3.2 | 8.0 | 0.00 | 0.00 | 0.00 | 75 | 1013.4 |
| 20260504010128 | 13 | 190 | 3.2 | 8.0 | 0.00 | 0.00 | 0.00 | 76 | 1013.7 |
| 20260504005625 | 13 | 300 | 1.6 | 1.6 | 0.00 | 0.00 | 0.00 | 76 | 1013.3 |
| 20260504005122 | 13 | 174 | 1.6 | 3.2 | 0.00 | 0.00 | 0.00 | 75 | 1013.3 |
| 20260504004620 | 13 | 143 | 0.0 | 0.0 | 0.00 | 0.00 | 0.00 | 75 | 1013.6 |
| 20260504004117 | 13 | 321 | 4.8 | 8.0 | 0.00 | 0.00 | 0.00 | 74 | 1013.5 |
| 20260504003613 | 13 | 161 | 0.0 | 1.6 | 0.00 | 0.00 | 0.00 | 74 | 1013.5 |
| 20260504003110 | 13 | 244 | 4.8 | 9.7 | 0.00 | 0.00 | 0.00 | 74 | 1013.5 |
| 20260504002607 | 13 | 184 | 3.2 | 4.8 | 0.00 | 0.00 | 0.00 | 75 | 1013.5 |
| 20260504002105 | 13 | 272 | 4.8 | 4.8 | 0.00 | 0.00 | 0.00 | 75 | 1013.8 |
| 20260504001602 | 14 | 28 | 4.8 | 8.0 | 0.00 | 0.00 | 0.00 | 75 | 1013.9 |
| 20260504001057 | 14 | 297 | 6.4 | 11.3 | 0.00 | 0.00 | 0.00 | 75 | 1013.6 |
| 20260504000555 | 14 | 11 | 3.2 | 4.8 | 0.00 | 0.00 | 0.00 | 75 | 1013.7 |
| 20260504000053 | 14 | 147 | 1.6 | 3.2 | 0.00 | 0.00 | 0.00 | 75 | 1013.7 |
| 20260503235551 | 14 | 227 | 3.2 | 3.2 | 0.00 | 0.00 | 0.00 | 76 | 1013.7 |
| 20260503235047 | 14 | 162 | 0.0 | 0.0 | 0.00 | 0.00 | 0.00 | 75 | 1013.8 |
| 20260503234545 | 14 | 83 | 1.6 | 1.6 | 0.00 | 0.00 | 0.00 | 75 | 1013.5 |
| 20260503234043 | 14 | 225 | 3.2 | 3.2 | 0.00 | 0.00 | 0.00 | 74 | 1013.5 |
| 20260503233539 | 14 | 222 | 1.6 | 1.6 | 0.00 | 0.00 | 0.00 | 75 | 1013.6 |
| 20260503233035 | 15 | 152 | 1.6 | 1.6 | 0.00 | 0.00 | 0.00 | 74 | 1013.3 |
| 20260503232533 | 15 | 143 | 3.2 | 4.8 | 0.00 | 0.00 | 0.00 | 74 | 1013.5 |
| 20260503232030 | 15 | 299 | 3.2 | 3.2 | 0.00 | 0.00 | 0.00 | 72 | 1013.5 |
| 20260503231528 | 15 | 339 | 9.7 | 12.9 | 0.00 | 0.00 | 0.00 | 70 | 1013.6 |
| 20260503231024 | 15 | 322 | 3.2 | 4.8 | 0.00 | 0.00 | 0.00 | 70 | 1013.7 |
| 20260503230521 | 15 | 353 | 4.8 | 4.8 | 0.00 | 0.00 | 0.00 | 69 | 1013.7 |
| 20260503230018 | 14 | 298 | 4.8 | 11.3 | 0.00 | 0.00 | 0.00 | 69 | 1013.6 |
| 20260503225515 | 14 | 303 | 4.8 | 8.0 | 0.00 | 0.00 | 0.00 | 69 | 1013.8 |
| 20260503225010 | 14 | 232 | 3.2 | 3.2 | 0.00 | 0.00 | 0.00 | 69 | 1013.7 |
| 20260503224508 | 14 | 332 | 3.2 | 4.8 | 0.00 | 0.00 | 0.00 | 69 | 1013.5 |
| 20260503224005 | 14 | 49 | 4.8 | 9.7 | 0.00 | 0.00 | 0.00 | 68 | 1013.7 |
| 20260503223502 | 14 | 55 | 4.8 | 9.7 | 0.00 | 0.00 | 0.00 | 68 | 1013.6 |
| 20260503222952 | 14 | 336 | 4.8 | 8.0 | 0.00 | 0.00 | 0.00 | 66 | 1013.8 |
| 20260503222451 | 14 | 300 | 11.3 | 14.5 | 0.00 | 0.00 | 0.00 | 66 | 1013.9 |
| 20260503221949 | 14 | 199 | 3.2 | 4.8 | 0.00 | 0.00 | 0.00 | 67 | 1014.4 |
| 20260503221447 | 14 | 287 | 3.2 | 4.8 | 0.00 | 0.00 | 0.00 | 69 | 1014.0 |
| 20260503220944 | 14 | 313 | 1.6 | 4.8 | 0.00 | 0.00 | 0.00 | 70 | 1013.9 |
| 20260503220440 | 14 | 235 | 3.2 | 4.8 | 0.00 | 0.00 | 0.00 | 70 | 1014.2 |
| 20260503215937 | 14 | 310 | 3.2 | 4.8 | 0.00 | 0.00 | 0.00 | 72 | 1013.9 |
| 20260503215434 | 15 | 178 | 1.6 | 1.6 | 0.00 | 0.00 | 0.00 | 71 | 1014.0 |
| 20260503214932 | 15 | 186 | 1.6 | 1.6 | 0.00 | 0.00 | 0.00 | 71 | 1014.1 |
| 20260503214429 | 15 | 158 | 4.8 | 8.0 | 0.00 | 0.00 | 0.00 | 70 | 1014.1 |
| 20260503213926 | 15 | 263 | 6.4 | 8.0 | 0.00 | 0.00 | 0.00 | 69 | 1014.1 |
| 20260503213425 | 15 | 275 | 4.8 | 8.0 | 0.00 | 0.00 | 0.00 | 70 | 1014.2 |
| 20260503212920 | 15 | 316 | 0.0 | 3.2 | 0.00 | 0.00 | 0.00 | 71 | 1014.4 |
| 20260503212418 | 15 | 140 | 1.6 | 3.2 | 0.00 | 0.00 | 0.00 | 71 | 1014.4 |
| 20260503211915 | 15 | 179 | 1.6 | 1.6 | 0.00 | 0.00 | 0.00 | 71 | 1014.6 |
| 20260503211412 | 15 | 298 | 12.9 | 20.9 | 0.00 | 0.00 | 0.00 | 73 | 1014.4 |
| 20260503210906 | 15 | 315 | 4.8 | 8.0 | 0.00 | 0.00 | 0.00 | 75 | 1014.6 |
| 20260503210404 | 15 | 274 | 1.6 | 3.2 | 0.00 | 0.00 | 0.00 | 77 | 1014.5 |
| 20260503205859 | 15 | 20 | 3.2 | 4.8 | 0.00 | 0.00 | 0.00 | 80 | 1014.5 |
| 20260503205356 | 15 | 136 | 1.6 | 3.2 | 0.00 | 0.00 | 0.00 | 82 | 1014.5 |
| 20260503204853 | 15 | 36 | 3.2 | 4.8 | 0.00 | 0.00 | 0.00 | 83 | 1014.6 |
| 20260503204349 | 15 | 303 | 1.6 | 3.2 | 0.00 | 0.00 | 0.00 | 82 | 1014.4 |
| 20260503203847 | 15 | 169 | 3.2 | 4.8 | 0.00 | 0.00 | 0.00 | 81 | 1014.7 |
| 20260503203344 | 15 | 12 | 3.2 | 4.8 | 0.00 | 0.00 | 0.00 | 80 | 1014.4 |
| 20260503202841 | 15 | 313 | 6.4 | 11.3 | 0.00 | 0.00 | 0.00 | 81 | 1014.5 |
| 20260503202339 | 15 | 309 | 12.9 | 14.5 | 0.00 | 0.00 | 0.00 | 82 | 1014.3 |
| 20260503201837 | 15 | 294 | 8.0 | 12.9 | 0.00 | 0.00 | 0.00 | 82 | 1014.3 |
| 20260503201333 | 15 | 328 | 3.2 | 4.8 | 0.00 | 0.00 | 0.00 | 80 | 1014.4 |
| 20260503200831 | 15 | 103 | 1.6 | 1.6 | 0.00 | 0.00 | 0.00 | 79 | 1014.3 |
| 20260503200327 | 15 | 319 | 4.8 | 8.0 | 0.00 | 0.00 | 0.00 | 78 | 1014.2 |
| 20260503195825 | 15 | 314 | 4.8 | 8.0 | 0.00 | 0.03 | 0.03 | 78 | 1014.4 |
| 20260503195321 | 15 | 256 | 4.8 | 9.7 | 0.00 | 0.03 | 0.03 | 77 | 1014.5 |
| 20260503194819 | 15 | 279 | 11.3 | 14.5 | 0.00 | 0.03 | 0.03 | 77 | 1014.1 |
| 20260503194314 | 15 | 312 | 6.4 | 9.7 | 0.00 | 0.03 | 0.03 | 78 | 1014.1 |
| 20260503193810 | 15 | 331 | 4.8 | 8.0 | 0.00 | 0.03 | 0.03 | 78 | 1014.1 |
| 20260503193307 | 15 | 200 | 3.2 | 4.8 | 0.00 | 0.03 | 0.03 | 78 | 1014.1 |
| 20260503192803 | 15 | 166 | 3.2 | 8.0 | 0.00 | 0.03 | 0.03 | 78 | 1014.4 |
| 20260503192258 | 15 | 311 | 4.8 | 8.0 | 0.00 | 0.03 | 0.03 | 77 | 1014.0 |
| 20260503191755 | 15 | 295 | 1.6 | 3.2 | 0.00 | 0.03 | 0.03 | 77 | 1014.0 |
| 20260503191252 | 15 | 176 | 1.6 | 3.2 | 0.00 | 0.03 | 0.03 | 78 | 1014.0 |
| 20260503190748 | 15 | 282 | 8.0 | 11.3 | 0.00 | 0.03 | 0.03 | 78 | 1013.9 |
| 20260503190245 | 15 | 301 | 11.3 | 12.9 | 0.00 | 0.03 | 0.03 | 79 | 1014.0 |
| 20260503185742 | 15 | 290 | 8.0 | 11.3 | 0.00 | 0.03 | 0.03 | 80 | 1014.2 |
| 20260503185237 | 15 | 308 | 4.8 | 4.8 | 0.00 | 0.03 | 0.03 | 80 | 1013.8 |
| 20260503184732 | 15 | 299 | 8.0 | 12.9 | 0.00 | 0.03 | 0.03 | 80 | 1013.7 |
| 20260503184229 | 15 | 295 | 9.7 | 14.5 | 0.00 | 0.03 | 0.03 | 80 | 1014.1 |
| 20260503183725 | 15 | 188 | 1.6 | 4.8 | 0.00 | 0.03 | 0.03 | 81 | 1013.5 |
| 20260503183223 | 15 | 356 | 8.0 | 11.3 | 0.00 | 0.03 | 0.03 | 82 | 1013.8 |
| 20260503182721 | 15 | 290 | 4.8 | 9.7 | 0.00 | 0.03 | 0.03 | 85 | 1013.7 |
| 20260503182219 | 15 | 302 | 4.8 | 4.8 | 0.00 | 0.03 | 0.03 | 86 | 1013.7 |
| 20260503181715 | 15 | 296 | 11.3 | 14.5 | 0.13 | 0.03 | 0.03 | 87 | 1013.7 |
| 20260503181213 | 15 | 248 | 4.8 | 4.8 | 0.13 | 0.03 | 0.03 | 86 | 1013.5 |
| 20260503180709 | 16 | 14 | 4.8 | 8.0 | 0.00 | 0.00 | 0.00 | 84 | 1013.4 |
| 20260503180208 | 16 | 311 | 6.4 | 14.5 | 0.00 | 0.00 | 0.00 | 82 | 1013.2 |
| 20260503175704 | 16 | 310 | 3.2 | 4.8 | 0.00 | 0.00 | 0.00 | 81 | 1013.3 |
| 20260503175202 | 16 | 39 | 4.8 | 4.8 | 0.00 | 0.00 | 0.00 | 81 | 1013.5 |
| 20260503174657 | 16 | 26 | 4.8 | 4.8 | 0.00 | 0.00 | 0.00 | 83 | 1013.4 |
| 20260503174155 | 16 | 297 | 8.0 | 11.3 | 0.00 | 0.00 | 0.00 | 84 | 1013.2 |
| 20260503173650 | 16 | 301 | 6.4 | 9.7 | 0.00 | 0.00 | 0.00 | 85 | 1013.1 |
| 20260503173146 | 16 | 346 | 9.7 | 14.5 | 0.00 | 0.00 | 0.00 | 87 | 1013.1 |
| 20260503172644 | 16 | 300 | 9.7 | 11.3 | 0.00 | 0.00 | 0.00 | 88 | 1012.8 |
| 20260503172141 | 16 | 222 | 1.6 | 1.6 | 0.00 | 0.00 | 0.00 | 88 | 1012.7 |
| 20260503171637 | 16 | 289 | 1.6 | 3.2 | 0.00 | 0.00 | 0.00 | 88 | 1012.5 |
| 20260503171135 | 16 | 62 | 1.6 | 3.2 | 0.00 | 0.00 | 0.00 | 88 | 1012.4 |
| 20260503170632 | 16 | 325 | 4.8 | 8.0 | 0.00 | 0.00 | 0.00 | 88 | 1012.5 |
| 20260503170128 | 16 | 132 | 4.8 | 8.0 | 0.00 | 0.00 | 0.00 | 88 | 1012.5 |
| 20260503150520 | 16 | 313 | 8.0 | 9.7 | 0.00 | 0.00 | 0.00 | 93 | 1011.6 |
| 20260503131413 | 21 | 154 | 3.2 | 4.8 | 0.00 | 0.00 | 0.00 | 74 | 1010.4 |
| 20260503130910 | 21 | 307 | 11.3 | 16.1 | 0.00 | 0.00 | 0.00 | 74 | 1010.5 |
| 20260503130407 | 21 | 278 | 3.2 | 3.2 | 0.00 | 0.00 | 0.00 | 75 | 1010.5 |